This is the latest recevied weather packets stored in our database for station/object SA3PJN-WX. If no packets are shown the sender has not sent any weather packets the latest 10 day(s).
| Time | Temp. | Humidity | Pressure | Rain* | Wind** | Luminosity | Snow |
|---|---|---|---|---|---|---|---|
| 1778216805 | 6.11° C | 54% | 977.5 hPa | - | - | - | - |
| 1778216505 | 7.22° C | 48% | 977.6 hPa | - | - | - | - |
| 1778216175 | 8.33° C | 47% | 977.6 hPa | - | - | - | - |
| 1778215875 | 10.56° C | 44% | 978 hPa | - | - | - | - |
| 1778215575 | 11.11° C | 47% | 978.1 hPa | - | - | - | - |
| 1778215245 | 9.44° C | 50% | 978 hPa | - | - | - | - |
| 1778214945 | 8.33° C | 54% | 978 hPa | - | - | - | - |
| 1778214645 | 6.67° C | 55% | 978 hPa | - | - | - | - |
| 1778214345 | 6.67° C | 56% | 978 hPa | - | - | - | - |
| 1778214015 | 6.11° C | 56% | 978 hPa | - | - | - | - |
| 1778213715 | 6.11° C | 56% | 978 hPa | - | - | - | - |
| 1778213385 | 6.11° C | 56% | 978 hPa | - | - | - | - |
| 1778213085 | 6.11° C | 55% | 978 hPa | - | - | - | - |
| 1778212785 | 6.11° C | 54% | 977.5 hPa | - | - | - | - |
| 1778212485 | 6.11° C | 53% | 977.6 hPa | - | - | - | - |
| 1778212185 | 5.56° C | 54% | 977.6 hPa | - | - | - | - |
| 1778211885 | 6.11° C | 54% | 977.5 hPa | - | - | - | - |
| 1778211585 | 6.67° C | 55% | 978 hPa | - | - | - | - |
| 1778211285 | 5.56° C | 61% | 977.5 hPa | - | - | - | - |
| 1778210955 | 3.89° C | 62% | 977.4 hPa | - | - | - | - |
| 1778210655 | 3.89° C | 64% | 977.4 hPa | - | - | - | - |
| 1778210355 | 3.89° C | 65% | 977.4 hPa | - | - | - | - |
| 1778210054 | 3.33° C | 68% | 977.4 hPa | - | - | - | - |
| 1778209755 | 2.78° C | 72% | 977.4 hPa | - | - | - | - |
| 1778209454 | 1.67° C | 76% | 977.5 hPa | - | - | - | - |
* Rain since midnight (hover to see other rain measurements)
** Current wind speed in m/s (hover to see current wind gust speed)